This is the latest recevied weather packets stored in our database for station/object OK1KKY-18. If no packets are shown the sender has not sent any weather packets the latest 10 day(s).
| Time | Temp. | Humidity | Pressure | Rain* | Wind** | Luminosity | Snow |
|---|---|---|---|---|---|---|---|
| 1777917359 | 15.56° C | 60% | 1013.4 hPa | - | - | - | - |
| 1777916759 | 16.11° C | 58% | 1013.4 hPa | - | - | - | - |
| 1777916162 | 17.22° C | 56% | 1013.3 hPa | - | - | - | - |
| 1777915559 | 17.78° C | 55% | 1013.2 hPa | - | - | - | - |
| 1777914959 | 18.33° C | 53% | 1013.1 hPa | - | - | - | - |
| 1777914359 | 19.44° C | 51% | 1013.1 hPa | - | - | - | - |
| 1777913759 | 20.56° C | 48% | 1013.1 hPa | - | - | - | - |
| 1777913160 | 20.56° C | 43% | 1013.2 hPa | - | - | - | - |
| 1777912559 | 20.56° C | 42% | 1013.2 hPa | - | - | - | - |
| 1777911959 | 20° C | 43% | 1013.2 hPa | - | - | - | - |
| 1777911359 | 20.56° C | 44% | 1013.2 hPa | - | - | - | - |
| 1777910760 | 21.11° C | 41% | 1013.2 hPa | - | - | - | - |
| 1777910159 | 21.67° C | 38% | 1013.2 hPa | - | - | - | - |
| 1777909559 | 21.67° C | 38% | 1013.1 hPa | - | - | - | - |
| 1777908958 | 22.22° C | 37% | 1013.2 hPa | - | - | - | - |
| 1777908358 | 22.22° C | 38% | 1013.2 hPa | - | - | - | - |
| 1777907763 | 22.22° C | 36% | 1013.3 hPa | - | - | - | - |
| 1777907157 | 22.22° C | 38% | 1013.3 hPa | - | - | - | - |
| 1777906557 | 22.78° C | 35% | 1013.3 hPa | - | - | - | - |
| 1777905957 | 22.78° C | 35% | 1013.3 hPa | - | - | - | - |
| 1777905357 | 22.78° C | 37% | 1013.4 hPa | - | - | - | - |
| 1777904757 | 22.78° C | 36% | 1013.4 hPa | - | - | - | - |
| 1777904157 | 23.33° C | 34% | 1013.4 hPa | - | - | - | - |
| 1777903557 | 23.89° C | 32% | 1013.5 hPa | - | - | - | - |
| 1777902957 | 24.44° C | 32% | 1013.4 hPa | - | - | - | - |
* Rain since midnight (hover to see other rain measurements)
** Current wind speed in m/s (hover to see current wind gust speed)